Lexington Weather

Lexington, Massachusetts, USA

40°F
4/22/2024 7:43am 
  • Lexington Conditions: Clear
  • Temperature: 39.6°F / 4.2°CWarmer 2.7°F than last hour.
  • Dew Point: 29.8°FIncreased 1.0°Fsince last hour.
  • Relative Humidity: 68%Decreased 4.0% since last hour.
  • Wind: Calm, 10-min avg: Calm, gust: 2 mph
  • Barometer: 29.94 inRising 0.02  inHg/hr Rising Slowly
  • Visibility: 10 miles
  • Rain Today: 0.00 in
  •   

Regional Weather Roundup
for Boston, MA

        
000
ASUS41 KBOX 211710
RWRBOX

REGIONAL WEATHER ROUNDUP
NATIONAL WEATHER SERVICE BOSTON/NORTON MA
100 PM EDT SUN APR 21 2024

NOTE:  "FAIR" INDICATES FEW OR NO CLOUDS BELOW 12,000 FEET WITH NO 
SIGNIFICANT WEATHER AND/OR OBSTRUCTIONS TO VISIBILITY.

MAZALL-211800-
EASTERN MASSACHUSETTS
  
CITY           SKY/WX    TMP DP  RH WIND       PRES   REMARKS
BOSTON         CLOUDY    51  26  37 SW16G24   29.91F                  
BEVERLY        CLOUDY    51  28  41 W13G21    29.89F                  
LAWRENCE       CLOUDY    51  26  37 W8G20     29.91F                  
BEDFORD        CLOUDY    51  26  37 SW10      29.90F                  
NORWOOD        CLOUDY    53  27  36 SW13G26   29.91F                  
MARSHFIELD     CLOUDY    52  30  43 SW10      29.91F                  
PLYMOUTH       CLOUDY    53  27  36 SW16      29.91F                  
TAUNTON        CLOUDY    54  28  36 W9        29.93F                  
NEW BEDFORD    CLOUDY    52  29  41 SW9G17    29.93F                  
$$

MAZALL-211800-
CAPE COD AND THE ISLANDS
  
CITY           SKY/WX    TMP DP  RH WIND       PRES   REMARKS
FALMOUTH       NOT AVBL                                               
HYANNIS        CLOUDY    48  30  49 S9        29.93F                  
CHATHAM        CLOUDY    49  33  54 S5        29.95F                  
PROVINCETOWN   CLOUDY    48  32  53 S6        29.94F                  
NANTUCKET      CLOUDY    47  34  60 SW12      29.96F                  
MARTHAS VNYRD  CLOUDY    49  32  52 SW10      29.96F                  
$$
 
MAZALL-211800-
CENTRAL AND WESTERN MASSACHUSETTS
  
CITY           SKY/WX    TMP DP  RH WIND       PRES   REMARKS
WORCESTER      CLOUDY    47  22  37 W14G24    29.90F                  
FITCHBURG      CLOUDY    51  22  31 W13G26    29.91F                  
ORANGE         CLOUDY    47  25  42 W12       29.92F                  
SPRINGFIELD    NOT AVBL                                               
WESTFIELD      CLOUDY    49  23  36 W13       29.94F                  
NORTH ADAMS    CLOUDY    45  25  45 W12       29.95F                  
PITTSFIELD     CLOUDY    43  22  43 W10G20    29.93F                  
$$
 
RIZALL-211800-
RHODE ISLAND
  
CITY           SKY/WX    TMP DP  RH WIND       PRES   REMARKS
PROVIDENCE     CLOUDY    51  26  37 SW12G21   29.94F                  
NEWPORT        CLOUDY    48  26  42 SW10G20   29.94F                  
BLOCK ISLAND   CLOUDY    47  32  56 W13       29.98F                  
SMITHFIELD     CLOUDY    51  25  36 SW9G17    29.92F                  
WESTERLY       CLOUDY    48  32  53 W13G20    29.96F                  
$$
 
CTZALL-211800-
CONNECTICUT
  
CITY           SKY/WX    TMP DP  RH WIND       PRES   REMARKS
BRADLEY INTL   CLOUDY    52  24  33 W16       29.95F                  
HARTFORD       CLOUDY    50  26  39 SW8       29.95F                  
PLAINVILLE     FAIR      49  22  34 VRB6      29.95F                  
BRIDGEPORT     CLOUDY    50  30  46 SW14      29.97F                  
DANBURY        CLOUDY    49  25  39 SW12G22   29.98F                  
GROTON         CLOUDY    50  34  54 SW15G24   29.95F                  
NEW HAVEN      CLOUDY    50  29  44 SW12G22   29.97F                  
CHESTER        CLOUDY    50  23  34 SW9       29.95F                  
MERIDEN        CLOUDY    50  22  33 NW8       29.95F                  
WILLIMANTIC    CLOUDY    49  25  39 W9        29.94F                  
OXFORD         CLOUDY    47  25  42 SW8       29.95F                  
$$

MEZ002-015-021-024-NHZ003-005-008-011-012-014-VTZ005-008-211800-
NORTHERN NEW ENGLAND
  
CITY           SKY/WX    TMP DP  RH WIND       PRES   REMARKS
PORTLAND ME    PTSUNNY   51  33  50 S15G22    29.84F                  
BANGOR ME      PTSUNNY   52  30  43 SE3       29.80F                  
CONCORD NH     CLOUDY    52  24  33 W9G18     29.87F                  
MANCHESTER NH  CLOUDY    53  23  31 SW14G23   29.87F                  
NASHUA NH      CLOUDY    52  24  33 VRB7      29.90F                  
PORTSMOUTH NH  PTSUNNY   54  25  32 SW10G18   29.86F                  
JAFFREY NH     CLOUDY    49  21  33 W10G21    29.89F                  
KEENE NH       CLOUDY    47  23  38 W12G17    29.91F                  
BURLINGTON VT  CLOUDY    46  24  42 W16G24    29.89F                  
MT. WASHINGTON FOG       19  19 100 W30G36      N/A  VSB 1/16WCI   0  
$$

NYZ052-076-211800-
EASTERN NEW YORK
  
CITY           SKY/WX    TMP DP  RH WIND       PRES   REMARKS
ALBANY         CLOUDY    47  23  38 W9        29.98F                  
NEW YORK CITY  CLOUDY    49  23  36 SW8G20    29.99F                  
$$
 
ANZALL-211800-
MARINE OBSERVATIONS
  
STATION/POSITION TIME  TEMP    WIND        PRES    VSBY  WAVE
                       AIR SEA DIR/SP/G                  HT/PER
                 (UTC) (F)     (DEG/KT/KT) (MB)    (MI)  (FT/S)
BOSTON BUOY      1650   45     150/  8/ 10 1012.7F         1/ 8
BUZZARDS BAY     1600   44     230/ 10/ 10 1015.6F
NANTUCKET SOUND  1650   47 48  210/  8/ 10 1013.9F         1
MASS BAY-STELLWA 1504   46 46  260/  6/  8 1013.6F  1 7/8  2/ 8
ISLE OF SHOALS   1600   46     190/ 11/ 12 1012.1F
S OF BLOCK IS    1656      45                N/A           2/10
$$

......................KEY.........................
  SKY/WX - SKY CONDITION/PRESENT WEATHER
  TMP    - TEMPERATURE IN FAHRENHEIT
  DWPT   - DEWPOINT IN FAHRENHEIT
  RH     - RELATIVE HUMIDITY IN PERCENT
  WIND   - DIRECTION AND SPEED IN MPH
  PRES   - MEAN SEA LEVEL PRESSURE IN INCHES OF HG
  WCI    - WIND CHILL INDEX
  VSB    - VISIBILITY IN MILES
  HX     - HEAT INDEX
  TC     - TEMPERATURE IN CELSIUS
  VRB    - VARIABLE WIND DIRECTION
  N/A    - NOT AVAILABLE
  
      

Other recent Regional Weather Roundups

Mon Apr 22, 7:10am EDT

Mon Apr 22, 6:10am EDT

Mon Apr 22, 5:10am EDT

Mon Apr 22, 4:10am EDT

Mon Apr 22, 3:10am EDT

Mon Apr 22, 2:10am EDT

Mon Apr 22, 1:10am EDT

Mon Apr 22, 12:10am EDT

Sun Apr 21, 11:10pm EDT

Sun Apr 21, 10:10pm EDT

Sun Apr 21, 9:10pm EDT

Sun Apr 21, 8:10pm EDT

Sun Apr 21, 7:10pm EDT

Sun Apr 21, 6:10pm EDT

Sun Apr 21, 5:10pm EDT

Sun Apr 21, 4:10pm EDT

Sun Apr 21, 3:10pm EDT

Sun Apr 21, 2:10pm EDT

Sun Apr 21, 12:10pm EDT

Sun Apr 21, 11:10am EDT

Sun Apr 21, 10:10am EDT

Sun Apr 21, 9:10am EDT

Sun Apr 21, 8:10am EDT

Sun Apr 21, 7:10am EDT

Sun Apr 21, 6:10am EDT

Sun Apr 21, 5:10am EDT

Sun Apr 21, 4:10am EDT

Sun Apr 21, 3:10am EDT

Sun Apr 21, 2:10am EDT

Sun Apr 21, 1:10am EDT

Sun Apr 21, 12:10am EDT

Sat Apr 20, 11:10pm EDT

Sat Apr 20, 10:10pm EDT

Sat Apr 20, 9:10pm EDT

Sat Apr 20, 8:10pm EDT

Sat Apr 20, 7:10pm EDT

Sat Apr 20, 6:10pm EDT

Sat Apr 20, 5:10pm EDT

Sat Apr 20, 4:10pm EDT

Sat Apr 20, 3:10pm EDT

Sat Apr 20, 2:10pm EDT

Sat Apr 20, 1:10pm EDT

Sat Apr 20, 12:10pm EDT

Sat Apr 20, 11:10am EDT

Sat Apr 20, 10:10am EDT

Sat Apr 20, 9:10am EDT

Sat Apr 20, 8:10am EDT

Sat Apr 20, 7:10am EDT

Sat Apr 20, 6:10am EDT

Sat Apr 20, 5:10am EDT

Sat Apr 20, 4:10am EDT

Sat Apr 20, 3:10am EDT

Sat Apr 20, 2:10am EDT

Sat Apr 20, 1:10am EDT

Sat Apr 20, 12:10am EDT

Fri Apr 19, 11:10pm EDT

Fri Apr 19, 10:10pm EDT

Fri Apr 19, 9:10pm EDT

Fri Apr 19, 8:10pm EDT

Fri Apr 19, 7:10pm EDT

Fri Apr 19, 6:10pm EDT

Fri Apr 19, 5:10pm EDT

Fri Apr 19, 4:10pm EDT

Fri Apr 19, 3:10pm EDT

Fri Apr 19, 2:10pm EDT

Fri Apr 19, 1:10pm EDT

Fri Apr 19, 12:10pm EDT

Fri Apr 19, 11:10am EDT

Fri Apr 19, 10:10am EDT

Fri Apr 19, 9:10am EDT

Fri Apr 19, 8:10am EDT

Fri Apr 19, 7:10am EDT

Fri Apr 19, 6:10am EDT

Fri Apr 19, 5:10am EDT

Fri Apr 19, 4:10am EDT

Fri Apr 19, 3:10am EDT

Fri Apr 19, 2:10am EDT

Fri Apr 19, 1:10am EDT

Fri Apr 19, 12:10am EDT

Thu Apr 18, 11:10pm EDT

Thu Apr 18, 10:10pm EDT

Thu Apr 18, 9:10pm EDT

Thu Apr 18, 8:10pm EDT

Thu Apr 18, 7:10pm EDT

Thu Apr 18, 6:10pm EDT

Thu Apr 18, 5:10pm EDT

Thu Apr 18, 4:10pm EDT

Thu Apr 18, 3:10pm EDT

Thu Apr 18, 2:10pm EDT

Thu Apr 18, 1:10pm EDT

Thu Apr 18, 12:10pm EDT

Thu Apr 18, 11:10am EDT

Thu Apr 18, 10:10am EDT

Thu Apr 18, 9:10am EDT

Thu Apr 18, 8:10am EDT

Thu Apr 18, 7:10am EDT

Thu Apr 18, 6:10am EDT

Thu Apr 18, 5:10am EDT

Thu Apr 18, 4:10am EDT

Thu Apr 18, 3:10am EDT

Thu Apr 18, 2:10am EDT

Thu Apr 18, 1:10am EDT

Thu Apr 18, 12:10am EDT

Wed Apr 17, 11:10pm EDT

Wed Apr 17, 10:10pm EDT

Wed Apr 17, 9:10pm EDT

Wed Apr 17, 8:10pm EDT

Wed Apr 17, 7:10pm EDT

Wed Apr 17, 6:10pm EDT

Wed Apr 17, 5:10pm EDT

Wed Apr 17, 4:10pm EDT

Wed Apr 17, 3:10pm EDT

Wed Apr 17, 2:10pm EDT

Wed Apr 17, 1:10pm EDT

Wed Apr 17, 12:10pm EDT

Wed Apr 17, 11:10am EDT

Wed Apr 17, 10:10am EDT

Wed Apr 17, 9:10am EDT

Wed Apr 17, 8:10am EDT

Wed Apr 17, 7:10am EDT

Wed Apr 17, 6:10am EDT

Wed Apr 17, 5:10am EDT

Wed Apr 17, 4:10am EDT

Wed Apr 17, 3:10am EDT

Wed Apr 17, 2:10am EDT

Wed Apr 17, 1:10am EDT

Wed Apr 17, 12:10am EDT

Tue Apr 16, 11:10pm EDT

Tue Apr 16, 10:10pm EDT

Tue Apr 16, 9:10pm EDT

Tue Apr 16, 8:10pm EDT

Tue Apr 16, 7:10pm EDT

Tue Apr 16, 6:10pm EDT

Tue Apr 16, 5:10pm EDT

Tue Apr 16, 4:10pm EDT

Tue Apr 16, 3:10pm EDT

Tue Apr 16, 2:10pm EDT

Tue Apr 16, 1:10pm EDT

Tue Apr 16, 12:10pm EDT

Tue Apr 16, 11:10am EDT

Tue Apr 16, 10:10am EDT

Tue Apr 16, 9:10am EDT

Tue Apr 16, 8:10am EDT

Tue Apr 16, 7:10am EDT

Tue Apr 16, 6:10am EDT

Tue Apr 16, 5:10am EDT

Tue Apr 16, 4:10am EDT

Tue Apr 16, 3:10am EDT

Tue Apr 16, 2:10am EDT

Tue Apr 16, 1:10am EDT

Tue Apr 16, 12:10am EDT

Mon Apr 15, 11:10pm EDT

Mon Apr 15, 10:10pm EDT

Mon Apr 15, 9:10pm EDT

Mon Apr 15, 8:10pm EDT

Mon Apr 15, 7:10pm EDT

Mon Apr 15, 6:10pm EDT

Mon Apr 15, 5:10pm EDT

Mon Apr 15, 4:10pm EDT

Mon Apr 15, 3:10pm EDT

Mon Apr 15, 2:10pm EDT

Mon Apr 15, 1:10pm EDT

Mon Apr 15, 12:10pm EDT

Mon Apr 15, 11:10am EDT

Mon Apr 15, 10:10am EDT

Mon Apr 15, 9:10am EDT

Mon Apr 15, 8:10am EDT